Content
SEND FEEDBACK

Daily
Averages
Monthly
Summary
United States of America

UMATAC, GUAM


Home > North America > United States > Guam
Elevation: 190 feet     Latitude: 13 17N     Longitude: 144 40E

WEATHER
 
SELECT A DAY
Number of Records: 354,384;   Date Range: 1/1/95 - 11/22/14
 
SHARE

PRINT THIS DATA

[ ← Previous Day ]
WEATHER ALMANAC - JANUARY 18, 2013
[ Next Day → ]
[ °C ]   °F
Weather ElementAverageHighLow
Temperature77 °F84.4 °F (12:55 pm)68 °F (6:14 am)
Dewpoint69.1 °F73.4 °F (11:43 am)62.6 °F (6:19 am)
Humidity76.8 %88 % (5:53 am)66 % (1:55 pm)
Barometer29.84 in29.89 in (8:55 pm)29.80 in (2:01 am)
Wind Speed11.4 mph15 mph (1:36 am)
Wind Gust20.7 mph (11:43 am)
Weather ElementAverage
Visibility9.9 mi
Wind DirectionENE (64.8 °)

Weather ElementTotal
Precipitation---
Cooling Degree Days11.2 (Base 65)
Growing Degree Days26.2 (Base 50)
Averaged from 44 records on January 18, 2013
WEATHER CONDITIONS BREAKOUT
WIND DIRECTION BREAKOUT
WEATHER BY HOUR - JANUARY 18, 2013
[ °C ]   °F
Local TimeTemperatureDewpointHumidityBarometerVisibilityWind DirectionWind SpeedGust SpeedPrecipitationEventsConditions
1:23 AM77.0 °F69.8 °F78 %29.82 in10.0 miENE (70°)13.8 mphMostly Cloudy
1:30 AM77.0 °F69.8 °F78 %29.81 in10.0 miENE (70°)13.8 mphMostly Cloudy
1:36 AM77.0 °F69.8 °F78 %29.81 in10.0 miENE (70°)15.0 mphMostly Cloudy
1:53 AM77.0 °F69.8 °F78 %29.81 in10.0 miENE (70°)12.7 mphMostly Cloudy
1:55 AM75.7 °F68.9 °F79 %29.81 in10.0 miENE (60°)12.7 mphMostly Cloudy
2:01 AM75.2 °F69.8 °F83 %29.80 in10.0 miENE (70°)11.5 mphMostly Cloudy
2:06 AM75.2 °F68.0 °F78 %29.80 in10.0 miENE (60°)12.7 mphMostly Cloudy
2:55 AM73.0 °F66.4 °F80 %29.80 in10.0 miENE (70°)8.1 mphMostly Cloudy
3:55 AM77.0 °F71.6 °F83 %29.81 in10.0 miENE (70°)9.2 mphScattered Clouds
4:55 AM72.0 °F66.2 °F82 %29.82 in10.0 miEast (80°)11.5 mphClear
5:53 AM69.8 °F66.2 °F88 %29.81 in10.0 miENE (60°)10.4 mphMostly Cloudy
5:55 AM70.7 °F65.7 °F84 %29.82 in10.0 miENE (60°)9.2 mphMostly Cloudy
6:14 AM68.0 °F64.4 °F88 %29.82 in10.0 miENE (60°)9.2 mphScattered Clouds
6:16 AM68.0 °F64.4 °F88 %29.83 in10.0 miENE (60°)9.2 mphMostly Cloudy
6:19 AM69.8 °F62.6 °F78 %29.83 in10.0 miENE (60°)10.4 mphScattered Clouds
6:55 AM71.6 °F65.3 °F80 %29.84 in10.0 miENE (60°)9.2 mphClear
7:46 AM71.6 °F66.2 °F83 %29.85 in10.0 miENE (70°)12.7 mphMostly Cloudy
7:55 AM72.1 °F64.4 °F77 %29.86 in10.0 miENE (70°)12.7 mphMostly Cloudy
8:01 AM71.6 °F64.4 °F78 %29.86 in10.0 miENE (70°)12.7 mphScattered Clouds
8:04 AM71.6 °F64.4 °F78 %29.86 in10.0 miENE (70°)10.4 mphMostly Cloudy
8:15 AM73.4 °F66.2 °F78 %29.86 in10.0 miENE (70°)15.0 mphScattered Clouds
8:23 AM78.8 °F71.6 °F78 %29.86 in10.0 miENE (60°)12.7 mphMostly Cloudy
8:55 AM77.0 °F71.4 °F83 %29.88 in10.0 miEast (90°)11.5 mphOvercast
8:59 AM78.8 °F69.8 °F74 %29.88 in10.0 miEast (80°)11.5 mphMostly Cloudy
9:55 AM82.4 °F71.4 °F69 %29.87 in10.0 miEast (90°)13.8 mphPartly Cloudy
10:55 AM83.8 °F71.8 °F67 %29.86 in10.0 miEast (90°)13.8 mphClear
11:43 AM84.2 °F73.4 °F70 %29.84 in10.0 miEast (80°)12.7 mph20.7 mphMostly Cloudy
11:46 AM84.2 °F73.4 °F70 %29.84 in10.0 miENE (70°)11.5 mph20.7 mphScattered Clouds
11:55 AM84.0 °F73.2 °F70 %29.84 in10.0 miEast (90°)11.5 mphScattered Clouds
12:55 PM84.4 °F72.5 °F67 %29.82 in10.0 miEast (90°)13.8 mphPartly Cloudy
1:55 PM84.2 °F71.8 °F66 %29.80 in10.0 miEast (80°)11.5 mphPartly Cloudy
2:55 PM82.9 °F70.5 °F66 %29.80 in10.0 miENE (60°)12.7 mphClear
3:55 PM82.4 °F70.0 °F66 %29.81 in10.0 miENE (70°)9.2 mphClear
4:55 PM81.3 °F70.3 °F69 %29.83 in10.0 miEast (80°)9.2 mphClear
5:55 PM80.1 °F70.5 °F73 %29.84 in7.0 miNE (50°)8.1 mphClear
6:55 PM78.8 °F71.2 °F78 %29.86 in10.0 miNE (40°)8.1 mphClear
7:27 PM78.8 °F71.6 °F78 %29.88 in10.0 miNE (40°)9.2 mphMostly Cloudy
7:35 PM78.8 °F69.8 °F74 %29.88 in10.0 miNE (50°)10.4 mphScattered Clouds
7:55 PM77.7 °F69.3 °F75 %29.88 in10.0 miENE (60°)10.4 mphPartly Cloudy
8:55 PM78.4 °F70.7 °F77 %29.89 in10.0 miNE (40°)11.5 mphMostly Cloudy
9:55 PM78.3 °F70.0 °F76 %29.89 in10.0 miNNE (30°)11.5 mphPartly Cloudy
10:55 PM78.6 °F71.1 °F78 %29.89 in10.0 miNE (40°)12.7 mphOvercast
10:57 PM78.8 °F71.6 °F78 %29.89 in10.0 miNE (40°)13.8 mphMostly Cloudy
11:55 PM77.9 °F70.5 °F78 %29.88 in10.0 miNNE (30°)9.2 mphClear
Hourly data recorded from PGUA, located miles away from Umatac, Guam







STORIES FROM OUR PARTNERS